GARYV EGSR-EGSX

Flight info

Callsign GARYV
Flight time N/A
Altitude 2000
Route VFR NAV
Aircraft PA24/L-SDFGY/C

Departure

Time 2026-04-14 08:11
Airport Earls Colne Airfield (EGSR)

Arrival

Time N/A
Airport North Weald Airfield (EGSX)
Time Latitude Longitude Altitude Speed Heading
2026-04-14 07:54 51.91136 0.67583 232 ft 0 kts 15°
2026-04-14 08:02 51.91145 0.67599 229 ft 5 kts 61°
2026-04-14 08:03 51.91160 0.67677 230 ft 9 kts 78°
2026-04-14 08:03 51.91191 0.67777 231 ft 11 kts 66°
2026-04-14 08:03 51.91231 0.67901 232 ft 14 kts 60°
2026-04-14 08:03 51.91283 0.68049 230 ft 15 kts 61°
2026-04-14 08:04 51.91333 0.68194 231 ft 14 kts 61°
2026-04-14 08:04 51.91384 0.68337 229 ft 16 kts 60°
2026-04-14 08:04 51.91441 0.68497 231 ft 16 kts 60°
2026-04-14 08:04 51.91492 0.68644 232 ft 15 kts 61°
2026-04-14 08:05 51.91543 0.68795 233 ft 14 kts 60°
2026-04-14 08:05 51.91570 0.68864 233 ft 8 kts 37°
2026-04-14 08:05 51.91603 0.68876 232 ft 1 kts 336°
2026-04-14 08:05 51.91605 0.68872 233 ft 0 kts 304°
2026-04-14 08:10 51.91623 0.68872 232 ft 4 kts 16°
2026-04-14 08:10 51.91628 0.68851 233 ft 1 kts 237°
2026-04-14 08:10 51.91626 0.68845 234 ft 9 kts 239°
2026-04-14 08:11 51.91450 0.68325 245 ft 84 kts 238°
2026-04-14 08:11 51.91141 0.67492 490 ft 88 kts 234°
2026-04-14 08:11 51.90821 0.66646 864 ft 85 kts 232°
2026-04-14 08:11 51.90319 0.66205 1169 ft 93 kts 168°
2026-04-14 08:12 51.89786 0.66733 1583 ft 85 kts 145°
2026-04-14 08:12 51.89412 0.67499 1821 ft 96 kts 108°
2026-04-14 08:12 51.89638 0.68556 2023 ft 114 kts 52°
2026-04-14 08:12 51.90231 0.69549 2090 ft 129 kts 48°
2026-04-14 08:13 51.90882 0.70595 2115 ft 137 kts 46°
2026-04-14 08:13 51.91637 0.71603 2017 ft 149 kts 22°
2026-04-14 08:13 51.92628 0.71393 2035 ft 145 kts 322°
2026-04-14 08:13 51.93087 0.70076 2113 ft 132 kts 270°
2026-04-14 08:14 51.92803 0.68720 2045 ft 132 kts 224°
2026-04-14 08:14 51.91977 0.68255 2006 ft 129 kts 174°
2026-04-14 08:14 51.91107 0.68536 1990 ft 128 kts 170°
2026-04-14 08:14 51.90253 0.68866 1971 ft 127 kts 169°
2026-04-14 08:15 51.89399 0.69184 1982 ft 122 kts 171°
2026-04-14 08:15 51.88580 0.69352 1983 ft 120 kts 184°
2026-04-14 08:15 51.87758 0.69306 1959 ft 116 kts 185°
2026-04-14 08:15 51.87015 0.69018 2004 ft 106 kts 207°
2026-04-14 08:16 51.86389 0.68415 1989 ft 105 kts 211°
2026-04-14 08:16 51.85771 0.67795 1990 ft 104 kts 210°
2026-04-14 08:16 51.85151 0.67200 2004 ft 103 kts 208°
2026-04-14 08:16 51.84528 0.66631 1990 ft 104 kts 208°
2026-04-14 08:17 51.83900 0.66062 1966 ft 103 kts 208°
2026-04-14 08:17 51.83271 0.65525 1982 ft 102 kts 205°
2026-04-14 08:17 51.82624 0.65041 1965 ft 103 kts 204°
2026-04-14 08:17 51.81967 0.64585 1970 ft 102 kts 202°
2026-04-14 08:18 51.81308 0.64161 1946 ft 102 kts 200°
2026-04-14 08:18 51.80634 0.63786 1943 ft 101 kts 199°
2026-04-14 08:18 51.79965 0.63460 1905 ft 101 kts 195°
2026-04-14 08:18 51.79284 0.63187 1907 ft 100 kts 193°
2026-04-14 08:19 51.78614 0.62843 1864 ft 101 kts 211°
2026-04-14 08:19 51.78227 0.61980 1940 ft 95 kts 241°
2026-04-14 08:19 51.77980 0.61018 2024 ft 90 kts 243°
2026-04-14 08:19 51.77734 0.60031 1998 ft 96 kts 241°
2026-04-14 08:20 51.77495 0.59020 1990 ft 97 kts 242°
2026-04-14 08:20 51.77157 0.58089 1995 ft 96 kts 241°
2026-04-14 08:20 51.76892 0.57094 2003 ft 98 kts 241°
2026-04-14 08:20 51.76630 0.56082 1999 ft 99 kts 241°
2026-04-14 08:21 51.76380 0.55093 1980 ft 95 kts 241°
2026-04-14 08:21 51.76141 0.54142 1977 ft 88 kts 241°
2026-04-14 08:21 51.75912 0.53233 1989 ft 89 kts 241°
2026-04-14 08:21 51.75672 0.52293 2000 ft 92 kts 241°
2026-04-14 08:22 51.75366 0.51390 2009 ft 92 kts 229°
2026-04-14 08:22 51.74975 0.50579 2010 ft 91 kts 227°
2026-04-14 08:22 51.74576 0.49775 1993 ft 91 kts 227°
2026-04-14 08:22 51.74172 0.48961 2004 ft 93 kts 227°
2026-04-14 08:23 51.73767 0.48135 2008 ft 95 kts 227°
2026-04-14 08:23 51.73369 0.47273 1999 ft 96 kts 230°
2026-04-14 08:23 51.73141 0.46256 1995 ft 101 kts 248°
2026-04-14 08:23 51.73035 0.45136 1994 ft 102 kts 256°
2026-04-14 08:24 51.72971 0.43988 1996 ft 104 kts 256°
2026-04-14 08:24 51.72909 0.42804 2003 ft 107 kts 257°
2026-04-14 08:24 51.72842 0.41592 2003 ft 109 kts 256°
2026-04-14 08:24 51.72779 0.40359 2006 ft 112 kts 257°
2026-04-14 08:25 51.72705 0.39105 2011 ft 113 kts 256°
2026-04-14 08:25 51.72619 0.37831 2014 ft 116 kts 256°
2026-04-14 08:25 51.72535 0.36539 2016 ft 116 kts 257°
2026-04-14 08:25 51.72445 0.35247 2017 ft 116 kts 256°
2026-04-14 08:26 51.72355 0.33950 2019 ft 116 kts 253°
2026-04-14 08:26 51.72207 0.32680 2020 ft 116 kts 251°
2026-04-14 08:26 51.72047 0.31405 2019 ft 116 kts 251°
2026-04-14 08:26 51.71887 0.30137 2021 ft 116 kts 251°
2026-04-14 08:27 51.71721 0.28860 2020 ft 116 kts 251°
2026-04-14 08:27 51.71557 0.27582 2020 ft 117 kts 251°
2026-04-14 08:27 51.71392 0.26300 2021 ft 116 kts 250°
2026-04-14 08:27 51.71228 0.25045 2020 ft 114 kts 250°